STARLINK-2515 (48323 NORAD) Tracking and Keplerian Element Data

This shows tracking and keplerian element data for the satellite.

Feedback or suggestion? Click here.




ElementValue
Catalog48323
NameSTARLINK-2515
Epoch Orbit1546
Epoch Day215.06895265
Epoch Year2021
RAAN81.718
Inclination53.056
Eccentricity0.0001919
Argument of Perigee90.3126
Mean Anonmoly269.8083
Mean Motion15.06395904
Decay Rate5.45E-06
L11 48323U 21036AZ 21215.06895265 .00000545 00000-0 55496-4 0 9991
L22 48323 53.0560 81.7180 0001919 90.3126 269.8083 15.06395904 15461

Live tracking and technical data element details for STARLINK-2515 (NORAD 48323). STARLINK-2515 can be tracked NOW for your location showing map with azimuth and elevation plus other details from your city location.

Track the satellite on the map from your city or location and see movement details for azimuth, elevation, latitude, longitude, range, height, and movement on the map or in text.







IsCatalogInMostPopularTable: catalog: 48323, numindb: 39
Update: records affected: 1



GetName: 48323 STARLINK-2515

Hit Count: updated at: Tue, 03 Aug 2021 23:39:51 GMT